[[{"header":{"parameterUnit":"m.s-1","parameterCategory":2,"la1":30.2991,"la2":30.254,"lo1":-89.0895,"lo2":-89.0444,"dy":0.0017,"dx":0.0017,"nx":28,"ny":28,"refTime":"2024-10-11T03:00:00:Z","depth":"0","parameterNumber":2,"parameterNumberName":"U-component_of_CURRENTS"},"data":[0,0,0,0,0,0,0,0,0,0,0,0,0,0,0,0,0,0,0,0,0,0,0,0,0,0,0,0,0,0,0,0,0,0,0,0,0,0,0,0,0,0,0,0,0,0,0,0,0,0,0,0,0,0,0,0,0,0,0.2556,0.2555,0,0.2428,0.2426,0.2424,0.2338,0.2338,0.2338,0.2338,0.2135,0.213,0.2125,0,0,0,0,0,0,0,0,0,0,0,0,0,0.2616,0.2616,0.2556,0.2555,0.2554,0.2428,0.2426,0.2423,0.2338,0.2338,0.2338,0.2338,0.2137,0.2131,0.2124,0,0,0,0,0,0,0,0,0,0,0,0,0,0.2543,0.2615,0.2556,0.2501,0.2496,0.2429,0.2426,0.2423,0.2338,0.2338,0.2338,0.2338,0.2139,0.2131,0.2123,0.2072,0,0,0.2098,0.2095,0,0,0,0,0,0,0,0,0.2548,0.254,0.251,0.2505,0.2499,0.2405,0.2373,0.2304,0.2338,0.2391,0.2338,0.2338,0.2223,0.2208,0.2175,0.2063,0.2054,0.2098,0.2093,0.2089,0.2087,0,0,0,0,0,0,0,0.2553,0.2545,0.2499,0.251,0.2502,0.2445,0.2435,0.2359,0.2302,0.2386,0.2381,0.2378,0.2218,0.2183,0.217,0.2051,0.2098,0.2091,0.2086,0.2083,0.1937,0.1938,0,0,0,0,0,0,0.2588,0.255,0.2503,0.2495,0.2531,0.2445,0.2434,0.2429,0.2304,0.2287,0.2378,0.2374,0.2197,0.2179,0.2162,0.213,0.2089,0.2082,0.2077,0.1936,0.1937,0.1938,0,0,0,0,0,0,0.259,0.2585,0.2508,0.2525,0.2512,0.2446,0.2441,0.2427,0.2396,0.23,0.228,0.2363,0.2197,0.2174,0.2104,0.212,0.2078,0.2071,0.1935,0.1936,0.1938,0.2043,0,0,0,0,0,0,0.2592,0.2586,0.2583,0.2528,0.2513,0.2468,0.2441,0.2425,0.2397,0.2391,0.228,0.2261,0.2195,0.2117,0.2096,0.2108,0.2064,0.1933,0.1935,0.1937,0.2038,0.2048,0.2056,0,0,0,0,0,0.2594,0.2574,0.2584,0.2578,0.2515,0.2469,0.2454,0.2402,0.2397,0.2376,0.2315,0.2265,0.2115,0.211,0.2086,0.2096,0.1932,0.1935,0.1937,0.2034,0.2046,0.2056,0,0,0,0,0,0,0.256,0.2563,0.2572,0.2545,0.2521,0.2457,0.2424,0.2411,0.2346,0.2338,0.2258,0.2234,0.2185,0.2126,0.2124,0.2064,0.2023,0.202,0.2105,0.2115,0.2124,0.2101,0.2058,0,0,0,0,0,0.2569,0.257,0.2558,0.2531,0.2528,0.2487,0.2461,0.2437,0.2382,0.2353,0.2288,0.2224,0.2173,0.2134,0.207,0.2022,0.1994,0.2021,0.203,0.2038,0.2005,0.2012,0.2019,0.1946,0.1946,0.1945,0,0,0.2542,0.2546,0.2541,0.2528,0.25,0.2481,0.2467,0.2431,0.2408,0.234,0.2277,0.2244,0.2169,0.2124,0.2098,0.2076,0.2051,0.2041,0.2048,0.2009,0.2015,0.2022,0.2029,0.1947,0.1947,0.1947,0,0,0.2495,0.2504,0.25,0.2494,0.2483,0.2463,0.2466,0.2426,0.2402,0.2355,0.2318,0.2297,0.2195,0.2162,0.213,0.2147,0.2101,0.214,0.2156,0.2166,0.2172,0.2177,0.2182,0.2186,0.2143,0.2143,0.2143,0,0.2457,0.2466,0.2481,0.2478,0.2465,0.2466,0.2447,0.2422,0.2364,0.2342,0.2344,0.225,0.2211,0.2166,0.2187,0.2166,0.2159,0.2125,0.2179,0.2182,0.2185,0.2189,0.2192,0.2148,0.2148,0.2147,0.2147,0,0.2427,0.2429,0.2417,0.2432,0.2417,0.2395,0.2393,0.2373,0.2366,0.2345,0.231,0.2277,0.2217,0.2236,0.221,0.2217,0.2204,0.2197,0.2154,0.2199,0.22,0.2202,0.2156,0.2154,0.2152,0.2151,0,0,0.2328,0.239,0.2381,0.2393,0.2398,0.2375,0.2356,0.2331,0.2308,0.2296,0.2263,0.2245,0.2246,0.2211,0.2209,0.2232,0.2288,0.2228,0.2227,0.2237,0.2308,0.2241,0.2235,0.2299,0.2299,0.2299,0.2313,0,0.2289,0.2302,0.2334,0.2312,0.2312,0.2322,0.23,0.2282,0.2266,0.2235,0.2242,0.2207,0.2232,0.2224,0.2254,0.2258,0.229,0.2283,0.2256,0.2254,0.2192,0.2234,0.2066,0.2058,0.2313,0.2314,0.2314,0,0.224,0.2263,0.226,0.2279,0.2277,0.226,0.2228,0.2213,0.2188,0.2179,0.2165,0.2158,0.2169,0.2204,0.2237,0.2232,0.2272,0.2298,0.23,0.2184,0.2187,0.2046,0.205,0.1888,0.2315,0.2315,0.2315,0,0.217,0.2194,0.2199,0.2204,0.2228,0.221,0.2208,0.2183,0.2162,0.214,0.212,0.2125,0.2118,0.217,0.2212,0.2231,0.2254,0.2284,0.2262,0.2258,0.2076,0.2055,0.191,0.2323,0.2323,0.2323,0.2323,0,0.2116,0.21,0.217,0.2167,0.2145,0.2172,0.2129,0.2125,0.2108,0.2069,0.2088,0.2056,0.2113,0.2123,0.219,0.2206,0.2234,0.225,0.2252,0.2112,0.2094,0.191,0.1868,0.2323,0.2323,0.2323,0.2323,0,0.2021,0.2075,0.2073,0.2113,0.2115,0.2094,0.2087,0.2056,0.2056,0.2005,0.1998,0.1997,0.2006,0.2055,0.2121,0.2152,0.2097,0.2205,0.203,0.201,0.1836,0.1808,0.1679,0.1658,0.2179,0.2178,0.2176,0,0.1975,0.1975,0.2024,0.2021,0.2033,0.2017,0.1999,0.2016,0.1985,0.1959,0.1927,0.192,0.19,0.195,0.1983,0.2046,0.2008,0.1943,0.1951,0.1779,0.1751,0.1744,0.1738,0.1771,0.1767,0.1763,0.176,0,0.1876,0.1902,0.192,0.1929,0.192,0.1907,0.189,0.1872,0.1877,0.1844,0.1804,0.1794,0.1798,0.1757,0.1813,0.184,0.1767,0.1869,0.1724,0.1432,0.1377,0.1372,0.1818,0.1726,0.173,0.1732,0.1734,0.1735,0.1789,0.1788,0.1827,0.1829,0.1819,0.1798,0.1761,0.1755,0.1718,0.1663,0.1689,0.163,0.1555,0.1596,0.1598,0.1402,0.1563,0.1343,0.1332,0.135,0.1277,0.1648,0.1539,0.1541,0.1543,0.1544,0.1546,0,0.1689,0.1715,0.1718,0.1722,0.1687,0.171,0.1679,0.1637,0.1586,0.155,0.1513,0.1359,0.1242,0.1164,0.096,0.0854,0.0887,0.0792,0.0704,0.0744,0.1063,0.0985,0.0706,0.0707,0.0707,0.0707,0.0707,0.0707,0.1636,0.1631,0.1664,0.1605,0.1594,0.1519,0.1499,0.1448,0.1409,0.1281,0.1171,0.1139,0.0896,0.0536,0.0274,0.0279,0.0253,0.022,0.0324,0.0453,0.0503,0.055,0.0463,0.0079,0.0078,-0.0051,-0.0053,-0.0054]},{"header":{"parameterUnit":"m.s-1","parameterCategory":2,"la1":30.2991,"la2":30.254,"lo1":-89.0895,"lo2":-89.0444,"dy":0.0017,"dx":0.0017,"nx":28,"ny":28,"refTime":"2024-10-11T03:00:00:Z","depth":"0","parameterNumber":3,"parameterNumberName":"V-component_of_CURRENTS"},"data":[0,0,0,0,0,0,0,0,0,0,0,0,0,0,0,0,0,0,0,0,0,0,0,0,0,0,0,0,0,0,0,0,0,0,0,0,0,0,0,0,0,0,0,0,0,0,0,0,0,0,0,0,0,0,0,0,0,0,-0.0831,-0.083,0,-0.0779,-0.0778,-0.0778,-0.0775,-0.0776,-0.0776,-0.0777,-0.083,-0.0831,-0.0832,0,0,0,0,0,0,0,0,0,0,0,0,0,-0.0877,-0.0877,-0.0831,-0.083,-0.0829,-0.0779,-0.0778,-0.0778,-0.0775,-0.0776,-0.0776,-0.0777,-0.083,-0.0831,-0.0832,0,0,0,0,0,0,0,0,0,0,0,0,0,-0.0845,-0.0877,-0.0831,-0.0822,-0.082,-0.0779,-0.0778,-0.0777,-0.0775,-0.0776,-0.0777,-0.0777,-0.083,-0.0831,-0.0832,-0.0824,0,0,-0.0836,-0.0837,0,0,0,0,0,0,0,0,-0.0847,-0.0843,-0.0824,-0.0822,-0.0821,-0.0784,-0.0814,-0.0798,-0.0775,-0.0792,-0.0777,-0.0778,-0.0824,-0.0826,-0.0813,-0.0826,-0.0828,-0.0837,-0.0837,-0.0838,-0.0838,0,0,0,0,0,0,0,-0.0849,-0.0845,-0.0811,-0.0823,-0.0821,-0.0803,-0.08,-0.081,-0.0806,-0.0791,-0.0791,-0.0784,-0.0824,-0.0812,-0.0815,-0.0829,-0.0837,-0.0838,-0.0839,-0.0839,-0.0804,-0.0803,0,0,0,0,0,0,-0.0856,-0.0848,-0.0812,-0.0809,-0.0836,-0.0802,-0.0798,-0.0795,-0.0804,-0.0805,-0.0783,-0.0784,-0.0809,-0.0813,-0.0817,-0.0784,-0.0838,-0.0839,-0.084,-0.0806,-0.0804,-0.0802,0,0,0,0,0,0,-0.0858,-0.0854,-0.0814,-0.0827,-0.082,-0.08,-0.0797,-0.0794,-0.0782,-0.0797,-0.08,-0.0775,-0.081,-0.0815,-0.0816,-0.0787,-0.084,-0.0841,-0.0808,-0.0805,-0.0803,-0.0733,0,0,0,0,0,0,-0.0859,-0.0855,-0.0854,-0.0827,-0.082,-0.0791,-0.0796,-0.0792,-0.0777,-0.0777,-0.0791,-0.0796,-0.0811,-0.0813,-0.0817,-0.079,-0.0842,-0.081,-0.0807,-0.0804,-0.0738,-0.0729,-0.0721,0,0,0,0,0,-0.0861,-0.0858,-0.0854,-0.085,-0.082,-0.079,-0.0784,-0.0773,-0.0775,-0.0767,-0.077,-0.0796,-0.0795,-0.0813,-0.0818,-0.0791,-0.0812,-0.0808,-0.0804,-0.0742,-0.073,-0.0721,0,0,0,0,0,0,-0.0873,-0.0856,-0.0852,-0.0842,-0.0818,-0.079,-0.0781,-0.077,-0.0761,-0.0768,-0.0782,-0.0787,-0.0772,-0.079,-0.081,-0.0768,-0.0804,-0.0801,-0.0755,-0.0745,-0.0737,-0.0722,-0.0843,0,0,0,0,0,-0.0875,-0.0872,-0.0846,-0.0837,-0.0828,-0.0803,-0.0789,-0.0779,-0.0767,-0.0764,-0.0766,-0.0768,-0.0757,-0.0761,-0.076,-0.0747,-0.0722,-0.0728,-0.0719,-0.0712,-0.0701,-0.0618,-0.0601,-0.0789,-0.0789,-0.0789,0,0,-0.0876,-0.0867,-0.0864,-0.084,-0.0823,-0.0802,-0.0797,-0.0776,-0.0752,-0.0773,-0.0748,-0.0743,-0.0746,-0.0721,-0.0716,-0.0736,-0.0646,-0.0707,-0.0701,-0.0694,-0.0612,-0.0594,-0.0577,-0.0787,-0.0787,-0.0788,0,0,-0.0879,-0.0869,-0.0869,-0.0849,-0.0824,-0.0802,-0.0795,-0.0763,-0.0744,-0.0717,-0.0715,-0.0683,-0.0688,-0.0661,-0.0654,-0.0598,-0.0601,-0.0607,-0.0557,-0.0476,-0.0459,-0.0445,-0.0389,-0.037,-0.0605,-0.0605,-0.0605,0,-0.0879,-0.0875,-0.0861,-0.0851,-0.0831,-0.0802,-0.0785,-0.0754,-0.0722,-0.0694,-0.0708,-0.0643,-0.0649,-0.0588,-0.0565,-0.0577,-0.0544,-0.0598,-0.0463,-0.0448,-0.0434,-0.0381,-0.0361,-0.0601,-0.0602,-0.0602,-0.0602,0,-0.0882,-0.0873,-0.0868,-0.0847,-0.0822,-0.0801,-0.0758,-0.0725,-0.0698,-0.066,-0.0593,-0.0571,-0.0532,-0.0519,-0.053,-0.0431,-0.0444,-0.0459,-0.0488,-0.0411,-0.036,-0.034,-0.0596,-0.0597,-0.0598,-0.0599,0,0,-0.0886,-0.0874,-0.087,-0.0856,-0.0817,-0.0791,-0.0745,-0.0682,-0.0636,-0.0586,-0.0514,-0.0464,-0.0438,-0.0426,-0.0414,-0.0342,-0.0216,-0.036,-0.0357,-0.0303,-0.0046,-0.0081,-0.0064,-0.0207,-0.0203,-0.02,-0.005,0,-0.0887,-0.0877,-0.0865,-0.083,-0.0812,-0.0769,-0.0724,-0.0662,-0.0605,-0.0528,-0.046,-0.0401,-0.0407,-0.038,-0.0301,-0.0242,-0.016,-0.0256,-0.0131,-0.0128,-0.0166,-0.004,-0.0014,0.012,-0.0031,-0.0028,-0.0025,0,-0.0885,-0.0877,-0.086,-0.0813,-0.08,-0.0772,-0.0683,-0.064,-0.053,-0.0486,-0.0398,-0.0351,-0.0238,-0.0256,-0.0085,-0.0147,-0.0086,-0.0035,-0.0028,-0.0071,-0.0124,0.0018,0.0161,0.0182,0.0005,0.0003,0.0,0,-0.0884,-0.086,-0.0847,-0.0833,-0.0782,-0.0754,-0.0716,-0.0623,-0.0567,-0.0452,-0.0395,-0.0268,-0.0197,-0.0087,0.0002,-0.0027,0.0188,0.0156,0.0191,0.0187,0.0229,0.0223,0.0411,0.0302,0.0302,0.0301,0.0301,0,-0.0877,-0.0855,-0.0847,-0.0834,-0.0794,-0.0759,-0.0689,-0.0636,-0.0539,-0.0455,-0.0375,-0.0282,-0.0147,-0.0024,0.005,0.0184,0.023,0.0236,0.0244,0.0251,0.0245,0.0276,0.0259,0.0307,0.0306,0.0305,0.0304,0,-0.0861,-0.0863,-0.0839,-0.0808,-0.0794,-0.0762,-0.0687,-0.0629,-0.0554,-0.044,-0.0402,-0.0256,-0.0102,0.002,0.0204,0.0241,0.0397,0.0395,0.0377,0.038,0.0403,0.0388,0.0591,0.0623,0.0477,0.0477,0.0478,0,-0.0848,-0.0843,-0.0828,-0.0813,-0.0798,-0.0751,-0.0709,-0.0638,-0.0572,-0.0421,-0.0359,-0.0196,-0.0067,0.0169,0.0293,0.0442,0.045,0.0513,0.0464,0.0446,0.0437,0.0439,0.0452,0.0556,0.0557,0.0558,0.0558,0,-0.0815,-0.0821,-0.0809,-0.0794,-0.0765,-0.0718,-0.0657,-0.0611,-0.0512,-0.0419,-0.0278,-0.0172,0.005,0.024,0.0401,0.0473,0.0532,0.0528,0.0554,0.0561,0.0542,0.056,0.0385,0.0565,0.0564,0.0564,0.0563,0.0563,-0.0783,-0.0779,-0.0779,-0.0758,-0.073,-0.0679,-0.0625,-0.0552,-0.0452,-0.029,-0.0226,-0.004,0.0176,0.0421,0.0486,0.0612,0.0601,0.0637,0.0636,0.0653,0.0647,0.0458,0.0601,0.0601,0.0601,0.06,0.06,0,-0.0732,-0.0741,-0.0732,-0.0706,-0.0671,-0.0661,-0.0578,-0.0505,-0.0385,-0.024,-0.0107,0.0152,0.0365,0.0527,0.0711,0.0738,0.0757,0.0739,0.0778,0.0797,0.069,0.065,0.0758,0.0758,0.0758,0.0758,0.0758,0.0758,-0.0698,-0.0692,-0.0704,-0.0652,-0.0632,-0.0559,-0.0508,-0.0401,-0.0284,-0.0067,0.0105,0.0223,0.0402,0.0688,0.0826,0.0829,0.0872,0.0867,0.0877,0.0799,0.0789,0.0781,0.0743,0.0869,0.0869,0.1014,0.1015,0.1016]}],[{"header":{"parameterUnit":"m.s-1","parameterCategory":2,"la1":30.2991,"la2":30.254,"lo1":-89.0895,"lo2":-89.0444,"dy":0.0017,"dx":0.0017,"nx":28,"ny":28,"refTime":"2024-10-11T03:00:00:Z","depth":"2","parameterNumber":2,"parameterNumberName":"U-component_of_CURRENTS"},"data":[0,0,0,0,0,0,0,0,0,0,0,0,0,0,0,0,0,0,0,0,0,0,0,0,0,0,0,0,0,0,0,0,0,0,0,0,0,0,0,0,0,0,0,0,0,0,0,0,0,0,0,0,0,0,0,0,0,0,0.0815,0.0815,0,0.0827,0.0827,0.0828,0.0924,0.0926,0.0928,0.093,0.0986,0.0986,0.0985,0,0,0,0,0,0,0,0,0,0,0,0,0,0.0875,0.0874,0.0815,0.0815,0.0815,0.0827,0.0827,0.0828,0.0924,0.0926,0.0929,0.0931,0.0986,0.0986,0.0985,0,0,0,0,0,0,0,0,0,0,0,0,0,0.0867,0.0873,0.0815,0.0862,0.0866,0.0827,0.0827,0.0828,0.0923,0.0926,0.093,0.0933,0.0987,0.0986,0.0985,0.0917,0,0,0.0983,0.0983,0,0,0,0,0,0,0,0,0.0867,0.0865,0.0855,0.0859,0.0863,0.0875,0.0869,0.0859,0.0922,0.0904,0.093,0.0934,0.0949,0.0951,0.095,0.092,0.0922,0.0983,0.0982,0.0982,0.0982,0,0,0,0,0,0,0,0.0868,0.0865,0.0823,0.0855,0.086,0.0882,0.0885,0.0868,0.0912,0.0906,0.0913,0.0908,0.0952,0.095,0.0952,0.0923,0.0983,0.0982,0.0982,0.0982,0.0945,0.0944,0,0,0,0,0,0,0.0857,0.0865,0.0822,0.0823,0.087,0.0879,0.0882,0.087,0.0911,0.0919,0.0906,0.0913,0.095,0.0953,0.0954,0.0957,0.0982,0.0981,0.0981,0.0945,0.0945,0.0944,0,0,0,0,0,0,0.0858,0.0852,0.0822,0.0843,0.084,0.0874,0.086,0.0869,0.0898,0.091,0.092,0.093,0.0953,0.0956,0.0964,0.0957,0.0981,0.098,0.0946,0.0945,0.0944,0.0909,0,0,0,0,0,0,0.0859,0.0852,0.0844,0.0841,0.0839,0.0788,0.0857,0.0867,0.0887,0.0898,0.0932,0.094,0.0955,0.0965,0.0963,0.0956,0.098,0.0946,0.0945,0.0944,0.0911,0.0907,0.0904,0,0,0,0,0,0.0861,0.0822,0.0844,0.0839,0.0825,0.0786,0.0786,0.0824,0.0885,0.087,0.092,0.094,0.0958,0.0963,0.0961,0.0954,0.0947,0.0946,0.0945,0.0913,0.0908,0.0904,0,0,0,0,0,0,0.0839,0.0828,0.0852,0.0812,0.08,0.0802,0.0792,0.0828,0.0854,0.0887,0.0923,0.093,0.0933,0.0944,0.095,0.0942,0.0958,0.0956,0.0935,0.093,0.0927,0.0963,0.0979,0,0,0,0,0,0.0829,0.0808,0.0796,0.0769,0.0762,0.0786,0.0783,0.0809,0.0827,0.0846,0.0873,0.0907,0.0916,0.0928,0.0927,0.0915,0.0968,0.0913,0.0909,0.0906,0.0934,0.1013,0.102,0.094,0.094,0.094,0,0,0.0817,0.0806,0.0798,0.0765,0.0769,0.0751,0.0794,0.0785,0.0794,0.0842,0.0868,0.0885,0.0908,0.0903,0.0906,0.092,0.095,0.0905,0.0902,0.0933,0.1013,0.1021,0.1029,0.0939,0.0939,0.0939,0,0,0.0775,0.077,0.0744,0.0728,0.0722,0.0728,0.073,0.0738,0.0767,0.0767,0.0823,0.0851,0.0844,0.0879,0.0893,0.0868,0.0923,0.0858,0.0877,0.0951,0.0959,0.0967,0.1021,0.1035,0.0864,0.0864,0.0864,0,0.0773,0.074,0.0727,0.0698,0.0701,0.0723,0.0712,0.0715,0.0734,0.0766,0.077,0.0827,0.0839,0.088,0.0878,0.0863,0.0913,0.0888,0.095,0.0959,0.0968,0.1022,0.1037,0.0862,0.0862,0.0863,0.0863,0,0.071,0.07,0.0678,0.0666,0.0652,0.064,0.0646,0.0657,0.0698,0.0722,0.0763,0.0783,0.0835,0.0826,0.0845,0.091,0.0926,0.093,0.0966,0.0974,0.1029,0.1046,0.086,0.086,0.0861,0.0861,0,0,0.0705,0.0652,0.0659,0.0668,0.065,0.0642,0.0642,0.0663,0.0707,0.0713,0.0773,0.0788,0.0832,0.0853,0.088,0.0944,0.1029,0.0969,0.0974,0.1033,0.1194,0.1024,0.1026,0.1053,0.1056,0.1059,0.1199,0,0.069,0.065,0.0625,0.0624,0.0618,0.0633,0.0637,0.0662,0.0689,0.0735,0.0783,0.0826,0.083,0.0866,0.0928,0.1009,0.1076,0.0991,0.117,0.1176,0.1031,0.104,0.0909,0.1008,0.1215,0.1218,0.122,0,0.0668,0.0651,0.0638,0.0646,0.0647,0.0645,0.0701,0.0701,0.0751,0.0777,0.0832,0.0866,0.0955,0.095,0.1112,0.1062,0.1137,0.1192,0.1198,0.1073,0.1036,0.1037,0.1031,0.1248,0.1246,0.1244,0.1242,0,0.0713,0.068,0.0687,0.0683,0.0671,0.0692,0.07,0.0734,0.0754,0.0818,0.0845,0.0941,0.0993,0.1108,0.1186,0.1179,0.1354,0.1356,0.1275,0.1264,0.1205,0.1181,0.149,0.1489,0.1489,0.1489,0.1488,0,0.0726,0.0741,0.0713,0.072,0.0748,0.0729,0.0769,0.0787,0.0816,0.0841,0.0882,0.0918,0.1041,0.1128,0.1219,0.1274,0.1383,0.129,0.1292,0.1179,0.1153,0.1407,0.1395,0.1494,0.1493,0.1492,0.1491,0,0.0779,0.0757,0.0769,0.0764,0.0767,0.0794,0.0793,0.0812,0.0834,0.0868,0.0889,0.0941,0.1039,0.1133,0.1305,0.1285,0.1376,0.1373,0.1205,0.118,0.124,0.1225,0.1322,0.1317,0.1313,0.1309,0.1307,0,0.0798,0.0804,0.081,0.0817,0.0817,0.0835,0.0838,0.0837,0.0839,0.087,0.0886,0.0965,0.099,0.112,0.1135,0.1227,0.1324,0.112,0.1061,0.1232,0.1226,0.1217,0.1208,0.0988,0.0983,0.0979,0.0975,0,0.0839,0.0848,0.0855,0.0863,0.0871,0.0863,0.0861,0.0857,0.0847,0.0859,0.0874,0.0893,0.0941,0.0912,0.0941,0.0989,0.1081,0.1027,0.131,0.0998,0.0914,0.0907,0.0912,0.0937,0.0941,0.0944,0.0946,0.0947,0.0882,0.0896,0.0899,0.0906,0.0904,0.0878,0.085,0.0836,0.082,0.079,0.0837,0.078,0.0744,0.0688,0.0715,0.0733,0.0834,0.0806,0.0823,0.0843,0.0727,0.0634,0.0585,0.0587,0.0588,0.059,0.0591,0,0.091,0.092,0.0929,0.0916,0.0893,0.0903,0.0846,0.0791,0.0744,0.071,0.0706,0.0523,0.0466,0.0481,0.0421,0.0411,0.0468,0.0417,0.0487,0.0522,0.0554,0.0427,0.0205,0.0204,0.0203,0.0202,0,0,0.0928,0.0937,0.0928,0.0897,0.0891,0.0824,0.0782,0.0703,0.0626,0.0516,0.0417,0.0424,0.0376,0.0236,0.0249,0.022,0.0383,0.0213,0.0515,0.0629,0.066,0.0758,0.0596,0,0,0,0,0]},{"header":{"parameterUnit":"m.s-1","parameterCategory":2,"la1":30.2991,"la2":30.254,"lo1":-89.0895,"lo2":-89.0444,"dy":0.0017,"dx":0.0017,"nx":28,"ny":28,"refTime":"2024-10-11T03:00:00:Z","depth":"2","parameterNumber":3,"parameterNumberName":"V-component_of_CURRENTS"},"data":[0,0,0,0,0,0,0,0,0,0,0,0,0,0,0,0,0,0,0,0,0,0,0,0,0,0,0,0,0,0,0,0,0,0,0,0,0,0,0,0,0,0,0,0,0,0,0,0,0,0,0,0,0,0,0,0,0,0,-0.0035,-0.0036,0,-0.0116,-0.0117,-0.0118,-0.0196,-0.0197,-0.0198,-0.0198,-0.0232,-0.0232,-0.0232,0,0,0,0,0,0,0,0,0,0,0,0,0,0.0018,0.0017,-0.0035,-0.0036,-0.0037,-0.0115,-0.0117,-0.0118,-0.0196,-0.0197,-0.0198,-0.0199,-0.0232,-0.0232,-0.0232,0,0,0,0,0,0,0,0,0,0,0,0,0,-0.0029,0.0017,-0.0035,-0.0084,-0.009,-0.0115,-0.0117,-0.0118,-0.0195,-0.0197,-0.0198,-0.0199,-0.0232,-0.0232,-0.0232,-0.0204,0,0,-0.0232,-0.0232,0,0,0,0,0,0,0,0,-0.0026,-0.0031,-0.0076,-0.0081,-0.0087,-0.0146,-0.011,-0.0144,-0.0195,-0.0156,-0.0199,-0.02,-0.0197,-0.02,-0.0214,-0.0206,-0.0207,-0.0232,-0.0232,-0.0232,-0.0232,0,0,0,0,0,0,0,-0.0023,-0.0028,-0.0068,-0.0077,-0.0084,-0.0114,-0.0122,-0.0117,-0.0168,-0.016,-0.0165,-0.0172,-0.02,-0.0214,-0.0215,-0.0208,-0.0232,-0.0232,-0.0232,-0.0232,-0.0287,-0.0288,0,0,0,0,0,0,-0.0007,-0.0025,-0.0065,-0.007,-0.0058,-0.0113,-0.0123,-0.0127,-0.0169,-0.0177,-0.0171,-0.0176,-0.0213,-0.0215,-0.0217,-0.0237,-0.0232,-0.0232,-0.0232,-0.0286,-0.0287,-0.0289,0,0,0,0,0,0,-0.0006,-0.001,-0.0062,-0.0049,-0.0058,-0.0113,-0.0117,-0.0127,-0.0167,-0.0178,-0.0186,-0.0202,-0.0214,-0.0217,-0.0255,-0.0237,-0.0232,-0.0232,-0.0284,-0.0286,-0.0288,-0.0244,0,0,0,0,0,0,-0.0004,-0.0009,-0.0016,-0.0047,-0.0058,-0.0087,-0.0116,-0.0128,-0.0167,-0.0174,-0.0206,-0.021,-0.0216,-0.0255,-0.0255,-0.0237,-0.0232,-0.0282,-0.0285,-0.0287,-0.0244,-0.0245,-0.0246,0,0,0,0,0,-0.0002,-0.0009,-0.0016,-0.0021,-0.0062,-0.0087,-0.0096,-0.014,-0.0167,-0.0182,-0.0224,-0.021,-0.0272,-0.0256,-0.0256,-0.0237,-0.0281,-0.0284,-0.0287,-0.0244,-0.0245,-0.0246,0,0,0,0,0,0,-0.0003,-0.0018,-0.0026,-0.0042,-0.0064,-0.0101,-0.0122,-0.0149,-0.0194,-0.021,-0.0227,-0.0233,-0.0257,-0.0268,-0.025,-0.0269,-0.0273,-0.0277,-0.0241,-0.0241,-0.0242,-0.02,-0.0232,0,0,0,0,0,0.0001,-0.0003,-0.0025,-0.0039,-0.0049,-0.0086,-0.0107,-0.0135,-0.0172,-0.0196,-0.0221,-0.0251,-0.0264,-0.0273,-0.029,-0.0295,-0.0264,-0.0289,-0.0289,-0.0289,-0.026,-0.0222,-0.0214,-0.03,-0.03,-0.0299,0,0,-0.0004,-0.0013,-0.0018,-0.0038,-0.0061,-0.0071,-0.0104,-0.0137,-0.0146,-0.0187,-0.0222,-0.0252,-0.0271,-0.0285,-0.0295,-0.0292,-0.0251,-0.0293,-0.0293,-0.0262,-0.0224,-0.0215,-0.0207,-0.0302,-0.0301,-0.0301,0,0,-0.0012,-0.0022,-0.0028,-0.0038,-0.0066,-0.0079,-0.009,-0.0133,-0.0155,-0.0189,-0.022,-0.0241,-0.028,-0.0275,-0.0278,-0.0292,-0.0259,-0.0316,-0.0272,-0.0236,-0.0227,-0.0218,-0.016,-0.0147,-0.0312,-0.0312,-0.0312,0,-0.0025,-0.0023,-0.0036,-0.0042,-0.0047,-0.008,-0.0086,-0.0103,-0.0157,-0.0159,-0.02,-0.0237,-0.0259,-0.0236,-0.0257,-0.0282,-0.0262,-0.0258,-0.023,-0.0221,-0.0213,-0.0155,-0.0141,-0.031,-0.031,-0.031,-0.0311,0,-0.0027,-0.003,-0.0036,-0.0039,-0.0046,-0.006,-0.007,-0.0087,-0.012,-0.0132,-0.0142,-0.0179,-0.0195,-0.021,-0.0239,-0.0198,-0.0201,-0.0232,-0.0211,-0.02,-0.0142,-0.0128,-0.0308,-0.0308,-0.0309,-0.0309,0,0,-0.0054,-0.0039,-0.0045,-0.0033,-0.0044,-0.0048,-0.0045,-0.0041,-0.003,-0.0073,-0.0051,-0.0086,-0.0109,-0.0116,-0.0146,-0.0117,-0.0054,-0.0157,-0.0156,-0.0067,0.0041,0.003,0.0045,-0.0088,-0.0086,-0.0084,0.0063,0,-0.0058,-0.0049,-0.0043,-0.0032,-0.0023,-0.0026,-0.0013,-0.0011,-0.0017,-0.0006,-0.001,-0.002,-0.007,-0.0088,-0.0063,-0.0063,-0.0017,-0.0089,-0.0009,-0.0005,0.001,0.006,0.0021,0.0147,0.0078,0.008,0.0082,0,-0.0066,-0.0051,-0.0042,-0.0003,-0.0001,-0.0004,0.0028,0.0033,0.0061,0.0055,0.0066,0.0051,0.0086,0.0026,0.0095,0.0043,0.0051,0.0061,0.0066,0.0059,0.001,0.0119,0.0175,0.0106,0.0104,0.0102,0.0101,0,-0.0064,-0.0048,-0.0034,-0.0027,0.0003,0.0005,0.0013,0.0039,0.0058,0.0088,0.0105,0.0141,0.015,0.0177,0.0178,0.0134,0.0267,0.0209,0.0229,0.0229,0.0217,0.0212,0.0283,0.0283,0.0283,0.0282,0.0282,0,-0.0055,-0.0043,-0.004,-0.0029,-0.0014,0.0002,0.0023,0.0038,0.0077,0.011,0.0123,0.0168,0.0181,0.0242,0.024,0.0295,0.032,0.0275,0.0275,0.0227,0.0221,0.019,0.0177,0.0288,0.0286,0.0285,0.0284,0,-0.0043,-0.0044,-0.0027,-0.0012,-0.0016,-0.0011,0.001,0.0037,0.0068,0.0118,0.0126,0.0204,0.0283,0.0326,0.0393,0.0375,0.0424,0.0434,0.0389,0.038,0.0353,0.034,0.0491,0.0492,0.0493,0.0494,0.0495,0,-0.0025,-0.0021,-0.003,-0.0038,-0.0042,-0.0035,-0.0028,0.0009,0.0044,0.014,0.0173,0.0272,0.0352,0.048,0.0475,0.053,0.0499,0.0503,0.0407,0.0395,0.0379,0.0364,0.0351,0.0417,0.0417,0.0417,0.0417,0,0.0014,-0.0013,-0.0003,-0.0036,-0.0048,-0.0034,-0.0019,0.0017,0.0074,0.015,0.0267,0.0346,0.0447,0.0501,0.0548,0.055,0.0487,0.0502,0.0533,0.035,0.0331,0.0312,0.0301,0.0417,0.0417,0.0417,0.0417,0.0417,0.0026,0.0028,0.0004,-0.0024,-0.0043,-0.0037,0.0002,0.0051,0.0137,0.0254,0.0321,0.0444,0.0485,0.0563,0.0553,0.0507,0.0518,0.0473,0.0472,0.047,0.0415,0.0396,0.0486,0.0487,0.0487,0.0487,0.0488,0,0.0044,0.0029,0.0018,-0.0009,-0.0022,-0.0059,0.0009,0.0065,0.018,0.0279,0.0393,0.0464,0.053,0.0548,0.0471,0.0448,0.0414,0.0428,0.038,0.0382,0.0383,0.032,0.0368,0.0368,0.0368,0.0367,0,0,0.0054,0.0047,0.0041,0.0014,-0.0029,-0.0034,0.0005,0.0101,0.0197,0.0329,0.0415,0.0542,0.0563,0.05,0.0462,0.0395,0.0382,0.0377,0.0475,0.0422,0.0422,0.0414,0.032,0,0,0,0,0]}],[{"header":{"parameterUnit":"m.s-1","parameterCategory":2,"la1":30.2991,"la2":30.254,"lo1":-89.0895,"lo2":-89.0444,"dy":0.0017,"dx":0.0017,"nx":28,"ny":28,"refTime":"2024-10-11T03:00:00:Z","depth":"4","parameterNumber":2,"parameterNumberName":"U-component_of_CURRENTS"},"data":[0,0,0,0,0,0,0,0,0,0,0,0,0,0,0,0,0,0,0,0,0,0,0,0,0,0,0,0,0,0,0,0,0,0,0,0,0,0,0,0,0,0,0,0,0,0,0,0,0,0,0,0,0,0,0,0,0,0,-0.0491,-0.0491,0,-0.0483,-0.0483,-0.0483,-0.0484,-0.0484,-0.0484,-0.0485,-0.0482,-0.0481,-0.0481,0,0,0,0,0,0,0,0,0,0,0,0,0,-0.0491,-0.0492,-0.0491,-0.0491,-0.0491,-0.0483,-0.0483,-0.0483,-0.0484,-0.0484,-0.0485,-0.0485,-0.0482,-0.0482,-0.0481,0,0,0,0,0,0,0,0,0,0,0,0,0,-0.0489,-0.0492,-0.0491,-0.049,-0.049,-0.0483,-0.0483,-0.0483,-0.0484,-0.0484,-0.0485,-0.0485,-0.0482,-0.0482,-0.0481,-0.0478,0,0,-0.0481,-0.0481,0,0,0,0,0,0,0,0,-0.0489,-0.0489,-0.049,-0.049,-0.049,-0.0484,-0.0482,-0.0481,-0.0484,-0.0487,-0.0485,-0.0485,-0.0482,-0.0482,-0.0481,-0.0478,-0.0478,-0.0481,-0.0481,-0.048,-0.048,0,0,0,0,0,0,0,-0.0489,-0.0489,-0.0489,-0.049,-0.049,-0.0484,-0.0484,-0.0482,-0.0485,-0.0487,-0.0487,-0.0485,-0.0482,-0.0482,-0.0481,-0.0478,-0.0481,-0.048,-0.048,-0.048,-0.0453,-0.0452,0,0,0,0,0,0,-0.0489,-0.049,-0.0489,-0.0488,-0.0489,-0.0484,-0.0484,-0.0486,-0.0485,-0.0484,-0.0485,-0.0485,-0.0482,-0.0482,-0.0481,-0.0453,-0.048,-0.048,-0.048,-0.0453,-0.0452,-0.0452,0,0,0,0,0,0,-0.049,-0.049,-0.0489,-0.0488,-0.0487,-0.0484,-0.0487,-0.0486,-0.0495,-0.0483,-0.0483,-0.0495,-0.0482,-0.0482,-0.0488,-0.0454,-0.048,-0.048,-0.0454,-0.0453,-0.0452,-0.0412,0,0,0,0,0,0,-0.049,-0.049,-0.0499,-0.0488,-0.0487,-0.0495,-0.0486,-0.0486,-0.0493,-0.0493,-0.0492,-0.0491,-0.0482,-0.0488,-0.0487,-0.0454,-0.048,-0.0455,-0.0453,-0.0452,-0.0414,-0.041,-0.0407,0,0,0,0,0,-0.049,-0.0501,-0.0499,-0.0499,-0.0497,-0.0495,-0.0495,-0.0493,-0.0493,-0.0501,-0.0498,-0.0491,-0.0479,-0.0488,-0.0487,-0.0453,-0.0455,-0.0454,-0.0452,-0.0416,-0.0411,-0.0407,0,0,0,0,0,0,-0.0506,-0.0501,-0.05,-0.0509,-0.0506,-0.0495,-0.0506,-0.05,-0.0504,-0.0509,-0.0497,-0.0496,-0.0484,-0.0483,-0.0493,-0.0442,-0.0461,-0.0459,-0.0433,-0.0428,-0.0425,-0.0395,-0.048,0,0,0,0,0,-0.0513,-0.0523,-0.0512,-0.0523,-0.0524,-0.0517,-0.0518,-0.0515,-0.0512,-0.0515,-0.0512,-0.05,-0.0475,-0.0467,-0.046,-0.0442,-0.0446,-0.0416,-0.0412,-0.0409,-0.0385,-0.0362,-0.0353,-0.0447,-0.0447,-0.0447,0,0,-0.0523,-0.0522,-0.0528,-0.0528,-0.0528,-0.0527,-0.0519,-0.0526,-0.0522,-0.0514,-0.0519,-0.0497,-0.0472,-0.0445,-0.0437,-0.0441,-0.0394,-0.0407,-0.0404,-0.0381,-0.036,-0.035,-0.0342,-0.0446,-0.0447,-0.0447,0,0,-0.0539,-0.0548,-0.0556,-0.0554,-0.0554,-0.0548,-0.0552,-0.0546,-0.0545,-0.0541,-0.0519,-0.0481,-0.0473,-0.0425,-0.0402,-0.0375,-0.038,-0.0372,-0.0317,-0.0296,-0.0288,-0.028,-0.0313,-0.0308,-0.0361,-0.0361,-0.0361,0,-0.0549,-0.0553,-0.0559,-0.0561,-0.056,-0.0558,-0.0558,-0.0555,-0.0551,-0.0527,-0.0545,-0.0466,-0.0453,-0.037,-0.0346,-0.0362,-0.037,-0.0336,-0.0289,-0.0282,-0.0275,-0.0309,-0.0305,-0.0359,-0.0359,-0.036,-0.036,0,-0.056,-0.0565,-0.0573,-0.0572,-0.0577,-0.0579,-0.0571,-0.0565,-0.0559,-0.053,-0.0472,-0.0442,-0.0371,-0.0362,-0.034,-0.026,-0.0292,-0.0295,-0.0299,-0.0262,-0.0302,-0.0299,-0.0356,-0.0357,-0.0358,-0.0358,0,0,-0.056,-0.0575,-0.0575,-0.0575,-0.058,-0.058,-0.0572,-0.0538,-0.0499,-0.0484,-0.0423,-0.0352,-0.03,-0.0267,-0.0229,-0.02,-0.0168,-0.0211,-0.0211,-0.0239,-0.0155,-0.0157,-0.0154,-0.0157,-0.0155,-0.0154,-0.0218,0,-0.0559,-0.0562,-0.0574,-0.0577,-0.0575,-0.057,-0.0549,-0.0518,-0.0488,-0.0434,-0.0369,-0.0301,-0.0275,-0.0219,-0.0179,-0.017,-0.0148,-0.0152,-0.0188,-0.019,-0.0191,-0.0144,-0.0148,-0.0215,-0.0214,-0.0213,-0.0213,0,-0.0547,-0.0553,-0.0559,-0.0553,-0.0551,-0.0541,-0.0492,-0.047,-0.0387,-0.0356,-0.0264,-0.0226,-0.0139,-0.0143,-0.0095,-0.0098,-0.0103,-0.0117,-0.012,-0.0121,-0.0181,-0.0249,-0.0206,-0.0207,-0.0207,-0.0208,-0.0208,0,-0.0521,-0.0533,-0.054,-0.0543,-0.0538,-0.0517,-0.0486,-0.0418,-0.0389,-0.0281,-0.0253,-0.0151,-0.0117,-0.0084,-0.0105,-0.0083,-0.0113,-0.0094,-0.0111,-0.0116,-0.0116,-0.0123,-0.0058,-0.0058,-0.0058,-0.0058,-0.0058,0,-0.0496,-0.05,-0.052,-0.0518,-0.0495,-0.0481,-0.0423,-0.0374,-0.0301,-0.0264,-0.0184,-0.0162,-0.0098,-0.0117,-0.0108,-0.0116,-0.0115,-0.0084,-0.0108,-0.0107,-0.0112,-0.0117,-0.0123,-0.006,-0.006,-0.0059,-0.0059,0,-0.0468,-0.0483,-0.05,-0.0497,-0.0485,-0.0458,-0.0404,-0.0361,-0.0286,-0.0245,-0.0213,-0.0172,-0.0157,-0.0156,-0.0147,-0.0139,-0.0143,-0.0156,-0.0207,-0.0238,-0.0158,-0.0161,-0.0126,-0.0126,-0.0126,-0.0126,-0.0126,0,-0.0452,-0.0457,-0.0489,-0.0496,-0.0493,-0.0447,-0.0414,-0.0343,-0.0319,-0.0272,-0.0273,-0.0239,-0.0212,-0.0217,-0.02,-0.0187,-0.0178,-0.0205,-0.0092,-0.0125,-0.0154,-0.0157,-0.016,-0.0126,-0.0126,-0.0126,-0.0126,0,-0.0438,-0.0465,-0.0485,-0.0484,-0.0475,-0.0469,-0.0418,-0.0395,-0.0336,-0.0311,-0.0282,-0.024,-0.0241,-0.0201,-0.0214,-0.0207,-0.0183,-0.0204,-0.0201,-0.0095,-0.0126,-0.0154,-0.0157,-0.0127,-0.0127,-0.0127,-0.0127,0,-0.0434,-0.045,-0.0475,-0.0468,-0.0477,-0.0467,-0.0442,-0.0407,-0.0365,-0.0311,-0.0327,-0.0282,-0.0264,-0.0219,-0.0245,-0.0215,-0.0157,-0.0139,-0.0138,-0.0138,-0.0103,-0.0141,-0.0148,0,0,0,0,0,-0.0416,-0.0421,-0.044,-0.0438,-0.0455,-0.0452,-0.0447,-0.0429,-0.0395,-0.0365,-0.0321,-0.0305,-0.0246,-0.0241,-0.0196,-0.0234,-0.0174,-0.0184,-0.0158,-0.0127,-0.0127,-0.0081,0,0,0,0,0,0,-0.0403,-0.0422,-0.0434,-0.0418,-0.0408,-0.0413,-0.0415,-0.0405,-0.0375,-0.0344,-0.0311,-0.0289,-0.0239,-0.0251,-0.0187,-0.0183,-0.0161,-0.016,-0.016,-0.0128,-0.0127,-0.0127,-0.0079,0,0,0,0,0]},{"header":{"parameterUnit":"m.s-1","parameterCategory":2,"la1":30.2991,"la2":30.254,"lo1":-89.0895,"lo2":-89.0444,"dy":0.0017,"dx":0.0017,"nx":28,"ny":28,"refTime":"2024-10-11T03:00:00:Z","depth":"4","parameterNumber":3,"parameterNumberName":"V-component_of_CURRENTS"},"data":[0,0,0,0,0,0,0,0,0,0,0,0,0,0,0,0,0,0,0,0,0,0,0,0,0,0,0,0,0,0,0,0,0,0,0,0,0,0,0,0,0,0,0,0,0,0,0,0,0,0,0,0,0,0,0,0,0,0,0.0435,0.0435,0,0.0444,0.0444,0.0444,0.0451,0.0452,0.0452,0.0452,0.0475,0.0476,0.0476,0,0,0,0,0,0,0,0,0,0,0,0,0,0.042,0.042,0.0435,0.0435,0.0435,0.0444,0.0444,0.0444,0.0451,0.0452,0.0452,0.0452,0.0475,0.0476,0.0476,0,0,0,0,0,0,0,0,0,0,0,0,0,0.0427,0.042,0.0435,0.044,0.0441,0.0444,0.0444,0.0444,0.0451,0.0452,0.0452,0.0452,0.0475,0.0476,0.0476,0.0478,0,0,0.0479,0.0479,0,0,0,0,0,0,0,0,0.0427,0.0428,0.0439,0.044,0.044,0.0447,0.0447,0.0456,0.0451,0.0447,0.0452,0.0452,0.0467,0.0468,0.0469,0.048,0.0481,0.0479,0.0479,0.048,0.048,0,0,0,0,0,0,0,0.0426,0.0427,0.0438,0.0439,0.044,0.044,0.0441,0.0449,0.0456,0.0448,0.0448,0.0449,0.0467,0.0469,0.047,0.0481,0.0479,0.048,0.048,0.048,0.0525,0.0526,0,0,0,0,0,0,0.0425,0.0427,0.0438,0.0439,0.0434,0.044,0.0442,0.0444,0.0456,0.0458,0.0449,0.045,0.0467,0.0469,0.0471,0.0474,0.048,0.048,0.0481,0.0524,0.0525,0.0526,0,0,0,0,0,0,0.0425,0.0426,0.0438,0.0433,0.0434,0.044,0.0443,0.0444,0.0455,0.0457,0.0459,0.046,0.0467,0.047,0.0483,0.0475,0.0481,0.0482,0.0524,0.0525,0.0526,0.0481,0,0,0,0,0,0,0.0425,0.0426,0.0433,0.0433,0.0435,0.0444,0.0443,0.0445,0.0455,0.0456,0.0467,0.0468,0.0468,0.0482,0.0484,0.0477,0.0482,0.0523,0.0524,0.0525,0.0482,0.0481,0.048,0,0,0,0,0,0.0424,0.0426,0.0433,0.0434,0.0442,0.0444,0.0445,0.0449,0.0456,0.046,0.0468,0.0469,0.0492,0.0483,0.0485,0.0478,0.0522,0.0524,0.0525,0.0482,0.0481,0.048,0,0,0,0,0,0,0.0419,0.0427,0.0434,0.0439,0.0445,0.0445,0.045,0.0456,0.0466,0.047,0.0473,0.0476,0.0487,0.0497,0.0487,0.0499,0.0509,0.0511,0.0476,0.0475,0.0474,0.0473,0.0483,0,0,0,0,0,0.0422,0.0428,0.0435,0.0439,0.0444,0.0451,0.0455,0.046,0.0465,0.047,0.0478,0.0489,0.0494,0.0496,0.0508,0.051,0.0498,0.0512,0.0511,0.0509,0.0513,0.0465,0.0459,0.0531,0.0531,0.0531,0,0,0.042,0.0426,0.0429,0.0439,0.0445,0.0443,0.0454,0.0462,0.0468,0.0472,0.0485,0.0489,0.0498,0.0499,0.0505,0.0504,0.0487,0.0511,0.051,0.0514,0.0466,0.0458,0.0452,0.0532,0.0532,0.0532,0,0,0.0414,0.0427,0.043,0.0434,0.0446,0.0445,0.045,0.0459,0.0477,0.0497,0.0491,0.0485,0.0518,0.0493,0.0493,0.0497,0.0487,0.0514,0.0495,0.0448,0.0441,0.0434,0.0416,0.0408,0.0505,0.0505,0.0505,0,0.0412,0.0413,0.043,0.0431,0.043,0.0445,0.0441,0.0459,0.0473,0.0483,0.0507,0.0509,0.0511,0.0477,0.0481,0.0489,0.0477,0.0491,0.0442,0.0435,0.0429,0.0412,0.0404,0.0503,0.0504,0.0504,0.0504,0,0.0406,0.0405,0.0406,0.0409,0.0414,0.0411,0.0432,0.0455,0.0484,0.0488,0.0497,0.0493,0.0493,0.0485,0.0489,0.0441,0.0452,0.0445,0.0434,0.0418,0.0403,0.0395,0.0501,0.0501,0.0502,0.0502,0,0,0.04,0.04,0.0401,0.0404,0.04,0.041,0.0426,0.0438,0.0451,0.0473,0.0472,0.047,0.0467,0.0467,0.0449,0.0401,0.0347,0.041,0.0408,0.0374,0.0263,0.0294,0.0289,0.0325,0.0323,0.0322,0.0271,0,0.0387,0.0374,0.0383,0.0378,0.0368,0.0395,0.0409,0.0427,0.045,0.0457,0.0449,0.0454,0.046,0.0462,0.041,0.0366,0.0324,0.0363,0.0301,0.03,0.0313,0.028,0.0316,0.0265,0.0263,0.0262,0.0261,0,0.0379,0.0366,0.0359,0.0364,0.0369,0.04,0.0428,0.044,0.0446,0.0464,0.045,0.0446,0.0397,0.041,0.0317,0.0344,0.0313,0.0272,0.0269,0.0309,0.0316,0.0286,0.0246,0.0247,0.0248,0.0249,0.025,0,0.0357,0.0355,0.0354,0.0353,0.0362,0.042,0.0449,0.0464,0.0472,0.0481,0.0477,0.0421,0.0407,0.0347,0.0303,0.0308,0.0195,0.0189,0.0183,0.0186,0.0191,0.0199,0.0119,0.0119,0.0119,0.0119,0.012,0,0.0327,0.0326,0.0377,0.0376,0.0429,0.0442,0.0494,0.0524,0.0517,0.0489,0.0496,0.0437,0.039,0.0328,0.0285,0.022,0.0189,0.0177,0.0166,0.0178,0.0185,0.0185,0.0194,0.0118,0.0118,0.0118,0.0119,0,0.0296,0.0311,0.0324,0.0377,0.0428,0.048,0.0557,0.0558,0.0573,0.0537,0.0543,0.0452,0.0379,0.0341,0.0229,0.0206,0.0137,0.0124,0.0161,0.0154,0.0164,0.0171,0.0102,0.0102,0.0103,0.0103,0.0103,0,0.0267,0.0269,0.035,0.0406,0.0466,0.055,0.0591,0.0611,0.058,0.0515,0.0464,0.0411,0.0359,0.024,0.0182,0.0138,0.0131,0.0115,0.0122,0.0161,0.0157,0.0164,0.017,0.0104,0.0104,0.0104,0.0104,0,0.0211,0.0262,0.0277,0.0396,0.049,0.0537,0.0597,0.0562,0.0527,0.054,0.042,0.0375,0.0287,0.0206,0.0209,0.0151,0.0132,0.0119,0.0117,0.0123,0.0163,0.016,0.0166,0.0106,0.0106,0.0105,0.0105,0,0.0185,0.0204,0.0265,0.0384,0.0471,0.0506,0.0533,0.0505,0.0481,0.0417,0.035,0.0297,0.0257,0.0206,0.0163,0.0171,0.0157,0.0152,0.0148,0.0146,0.0184,0.0243,0.0191,0,0,0,0,0,0.0172,0.0204,0.0263,0.036,0.0431,0.0507,0.0511,0.0498,0.0455,0.0389,0.0386,0.0316,0.0263,0.0189,0.0203,0.0148,0.0143,0.016,0.0134,0.0114,0.0112,0.0153,0,0,0,0,0,0,0.0162,0.0203,0.0236,0.0321,0.0395,0.0452,0.0458,0.0428,0.0377,0.0351,0.0314,0.0339,0.0274,0.0294,0.0217,0.0209,0.0192,0.0147,0.0147,0.0115,0.0113,0.0112,0.0153,0,0,0,0,0]}]]